Wind_Speed
8 8 7 7 7 7 7 8 9 10 10 10 10 9 8 8 7 7 8 8 8 7 7 6 5 6 7 7 7 8 8 8 8 8 7 7 7 7 7 7 7 7 8
8 8 8 7 7 7 8 8 9 9 10 10 9 9 8 7 7 8 8 8 8 7 7 6 6 6 7 7 7 7 8 8 9 8 7 6 7 7 7 6 7 7 7
8 8 7 7 7 7 8 8 8 9 9 9 9 9 8 8 8 8 8 8 7 7 7 6 7 7 7 7 7 8 8 8 9 8 7 7 7 7 6 6 6 7 7
8 7 7 7 7 7 8 8 9 9 9 9 9 9 9 9 9 9 9 9 8 8 8 7 7 7 7 7 8 8 8 8 8 8 7 7 7 7 6 6 6 6 7
8 7 7 7 6 6 7 8 9 9 9 10 10 10 9 10 10 10 10 9 9 9 8 8 7 7 7 7 7 8 8 8 8 8 7 7 7 6 6 6 6 6 7
7 7 7 6 6 6 6 8 9 9 9 9 9 10 10 10 10 10 10 9 9 9 8 8 8 7 7 6 7 7 7 7 7 7 7 7 7 7 6 6 6 6 7
7 6 6 5 5 5 6 8 8 8 8 9 9 9 9 10 10 9 9 9 9 9 9 8 7 7 7 7 7 7 7 7 7 7 7 7 6 6 6 6 6 6 6
6 6 5 5 5 5 6 7 7 8 8 9 9 10 9 9 9 9 9 8 8 8 8 7 7 7 7 7 7 6 7 7 7 6 7 6 6 6 6 6 6 5 5
6 5 5 5 5 5 5 6 7 7 8 9 9 10 9 8 8 8 8 8 7 7 7 7 7 7 7 6 6 6 6 6 6 7 7 6 6 6 6 6 6 5 5
6 6 5 5 5 5 6 6 7 7 8 8 9 9 9 8 7 7 7 7 7 7 7 7 7 7 7 6 6 6 6 6 6 7 7 6 6 6 6 5 5 5 5
7 6 6 5 5 5 6 6 7 7 8 7 8 9 8 8 7 7 7 7 7 7 7 7 7 6 6 6 6 5 6 6 6 6 6 6 6 6 6 5 5 4 5
7 6 6 5 5 5 5 5 6 6 6 6 7 7 7 7 7 7 7 7 7 7 7 7 7 6 6 6 6 6 6 6 6 6 6 5 5 5 5 5 5 4 4
7 6 5 5 5 5 5 5 5 5 5 6 6 6 6 6 6 6 6 6 6 6 6 6 6 6 5 5 5 6 6 6 6 6 5 5 5 5 5 4 4 4 3
8 7 6 6 5 5 5 4 4 4 4 5 5 5 6 6 6 6 6 6 5 6 5 5 5 5 5 5 5 5 5 5 5 5 5 5 5 5 4 4 3 3 3
9 8 7 6 5 5 5 4 3 4 4 4 4 4 5 5 5 5 5 5 5 5 5 5 5 5 5 5 5 5 5 5 5 5 5 5 4 4 4 4 3 3 3
9 8 7 6 5 4 4 3 3 3 3 3 3 4 4 4 4 4 4 5 4 4 4 4 4 4 4 4 4 4 4 4 4 4 5 4 4 4 4 4 4 4 4
10 8 8 6 5 4 3 3 3 3 2 2 3 3 4 3 3 3 4 4 4 4 4 4 3 3 3 3 3 3 3 3 4 4 4 4 4 4 4 4 5 5 4
11 9 8 7 6 5 4 3 2 2 2 2 2 3 3 3 2 2 4 4 4 4 4 4 4 3 3 3 3 3 3 3 4 5 5 5 5 5 6 5 6 6 7
11 10 9 8 8 6 5 3 2 1 1 2 1 2 2 2 2 3 4 4 4 4 4 4 4 4 4 5 4 4 4 5 5 6 6 6 6 6 6 7 7 8 8
12 11 10 9 9 8 7 5 4 2 1 1 1 1 1 2 2 3 4 4 4 4 5 5 5 5 6 6 6 6 6 7 7 7 8 8 8 8 8 9 9 9 10
11 11 10 10 9 8 7 6 5 4 2 1 1 2 2 2 3 3 4 5 5 6 6 6 7 7 7 7 7 8 8 9 9 9 10 10 10 10 10 11 11 11 12
12 11 11 11 10 9 8 6 5 4 3 2 2 3 3 3 4 4 5 6 6 6 7 7 8 8 9 9 9 10 11 11 11 12 12 11 11 12 12 13 13 13 14
12 11 11 10 10 10 9 7 6 5 4 4 3 3 3 4 4 4 5 6 6 7 7 8 9 9 10 10 11 11 12 12 13 13 14 13 13 14 14 14 15 16 16
11 11 11 10 10 10 10 9 7 6 6 5 5 5 5 5 5 5 6 7 7 8 8 9 10 10 11 12 13 13 13 14 14 14 15 15 15 15 16 17 17 18 18
11 11 11 11 10 9 9 10 9 8 7 6 6 6 6 6 6 7 8 8 8 9 9 10 11 12 13 13 14 14 14 15 16 16 16 17 17 18 18 18 19 19 19
11 11 11 11 11 11 10 11 11 10 9 8 8 8 8 6 7 8 9 9 9 10 11 12 13 14 14 14 15 15 16 16 18 18 18 18 18 18 18 18 19 19 20
Wind_Direction
84 81 81 87 95 98 104 111 115 115 114 116 119 121 121 123 128 130 134 135 137 139 138 138 136 131 126 131 131 131 132 133 140 137 132 134 135 134 134 139 136 138 133
83 84 84 86 94 95 101 106 112 116 116 118 118 119 116 121 132 133 133 135 139 138 141 143 142 135 134 138 137 136 136 137 136 134 132 133 135 133 135 142 144 142 140
77 80 81 84 91 96 101 105 111 113 116 116 117 115 111 114 120 125 130 130 132 137 143 141 140 138 139 142 138 135 134 134 134 133 134 133 134 136 139 140 143 144 144
72 77 79 83 88 92 97 102 107 110 117 117 116 115 113 113 117 122 125 127 127 126 131 130 131 134 135 135 137 136 135 135 135 134 135 135 133 137 142 143 146 147 147
71 73 79 85 90 91 96 103 104 106 111 111 113 114 115 117 119 121 124 125 125 125 126 127 124 125 125 128 136 139 139 141 140 138 136 137 136 140 146 147 150 148 148
69 72 75 79 83 87 96 102 99 101 107 109 111 113 115 116 118 121 122 123 121 120 122 123 122 123 126 129 135 142 147 148 145 143 142 143 142 141 145 151 153 153 143
69 73 76 80 84 87 93 100 98 103 107 111 113 115 118 119 118 118 119 120 121 124 121 121 122 123 127 133 136 146 149 148 147 143 144 147 147 152 151 151 148 151 147
69 74 77 80 87 95 98 101 103 109 112 111 118 119 120 123 122 120 121 118 122 123 122 123 125 129 129 133 137 140 142 147 149 149 147 149 151 153 156 155 154 153 151
66 71 76 83 90 102 110 107 107 108 111 110 116 122 121 122 124 123 121 117 114 114 116 119 128 131 136 139 144 140 140 144 147 149 151 153 159 162 159 161 160 158 156
61 71 82 88 90 98 109 111 107 107 107 108 110 115 117 121 124 126 124 119 114 110 111 116 122 129 133 140 143 142 142 144 148 149 149 151 156 165 164 164 161 163 163
65 73 78 87 87 95 104 107 108 103 104 105 107 110 114 120 124 124 123 121 117 115 117 121 128 130 129 133 141 145 142 143 144 144 149 150 154 158 163 163 166 172 168
64 73 77 80 81 87 102 108 110 107 105 106 109 113 115 118 122 123 123 124 122 121 125 126 132 134 133 135 137 140 140 142 141 143 149 154 154 156 159 165 172 178 174
59 69 71 74 79 86 97 111 112 114 112 113 114 113 117 122 124 125 127 129 126 123 124 126 131 136 137 140 142 144 146 146 147 146 149 153 152 155 160 163 169 176 181
51 60 69 71 76 83 93 111 120 127 125 125 124 122 124 127 130 133 132 130 128 127 125 124 134 132 138 140 143 150 155 153 157 155 153 157 160 162 168 170 174 184 193
45 56 62 65 71 80 85 105 126 138 135 137 136 135 137 133 133 138 142 138 137 137 133 125 125 129 131 139 148 153 158 161 164 168 169 173 179 187 196 196 192 206 227
38 48 50 57 67 76 82 87 114 142 152 148 146 149 148 141 138 145 151 150 145 143 144 138 133 141 144 142 145 151 157 164 176 183 189 196 205 206 204 210 221 237 250
40 46 45 51 59 68 70 77 100 115 143 163 164 161 155 153 149 153 157 156 153 153 155 157 157 164 166 162 161 162 168 179 193 196 208 215 218 225 228 231 239 250 258
39 43 45 47 52 56 55 58 86 101 127 150 168 167 164 167 168 166 173 174 171 173 177 180 190 197 204 207 207 207 208 211 216 222 231 236 239 246 248 248 253 258 264
38 42 45 45 47 45 44 42 40 58 104 131 169 175 178 195 209 207 198 197 197 203 206 207 211 219 225 229 232 232 234 239 236 234 237 242 248 254 254 255 257 258 264
37 42 43 43 42 41 40 44 43 36 79 130 194 210 209 215 225 224 220 220 221 222 227 226 227 233 237 236 239 242 247 250 249 246 247 249 253 257 259 259 262 263 268
36 38 39 39 37 37 36 37 36 32 9 305 276 253 248 253 247 247 241 240 241 239 240 239 239 243 246 244 245 250 255 257 255 254 253 254 257 260 261 262 264 267 271
31 32 34 33 31 29 28 27 25 25 22 0 299 276 271 263 257 260 256 248 249 247 247 247 248 249 248 249 252 255 259 258 258 254 254 257 261 263 263 264 265 268 270
26 27 27 27 25 23 20 16 14 11 4 353 332 304 288 275 267 270 270 267 266 260 261 260 259 259 256 256 258 260 260 259 262 257 255 257 261 266 267 267 268 270 271
24 24 25 26 20 18 17 13 9 1 350 341 329 316 295 283 275 274 275 275 274 270 269 271 269 270 266 262 261 260 259 261 264 264 262 261 264 266 268 270 270 271 273
20 18 19 19 16 14 13 11 7 358 349 343 327 313 298 284 279 276 275 277 275 273 273 275 274 275 273 269 266 266 265 264 263 262 263 264 266 269 270 270 270 270 273
14 15 16 16 16 14 10 9 7 3 356 347 332 316 304 286 282 282 280 279 277 275 274 277 278 279 279 275 272 269 268 267 265 264 264 266 268 270 271 271 270 272 274
Height
5878 5877 5877 5877 5876 5876 5876 5876 5876 5876 5876 5876 5876 5876 5876 5876 5876 5877 5878 5879 5880 5880 5881 5882 5882 5883 5883 5884 5885 5886 5887 5887 5888 5889 5890 5890 5891 5891 5892 5892 5893 5893 5894
5879 5879 5878 5878 5877 5877 5877 5877 5877 5877 5877 5877 5877 5877 5876 5876 5876 5877 5878 5879 5880 5880 5881 5882 5883 5884 5884 5885 5886 5887 5887 5888 5889 5890 5890 5891 5891 5892 5893 5893 5894 5894 5895
5880 5880 5880 5879 5879 5878 5878 5878 5878 5878 5878 5877 5877 5877 5876 5875 5875 5876 5878 5879 5880 5881 5882 5883 5883 5884 5885 5886 5887 5887 5888 5889 5890 5890 5891 5891 5892 5893 5894 5894 5894 5895 5895
5882 5881 5881 5881 5880 5879 5879 5879 5878 5878 5879 5878 5878 5877 5877 5876 5876 5877 5879 5880 5881 5882 5883 5884 5884 5885 5886 5887 5887 5888 5889 5890 5890 5891 5892 5892 5893 5894 5895 5895 5895 5896 5896
5883 5882 5882 5882 5881 5881 5880 5879 5879 5879 5879 5879 5879 5879 5879 5878 5878 5879 5880 5881 5882 5883 5884 5885 5885 5886 5887 5888 5888 5889 5890 5891 5891 5892 5893 5893 5894 5895 5895 5896 5896 5896 5897
5884 5884 5883 5883 5882 5882 5881 5880 5880 5880 5881 5880 5880 5880 5880 5880 5880 5881 5881 5882 5883 5884 5885 5885 5886 5887 5888 5889 5889 5890 5891 5891 5892 5893 5893 5894 5895 5895 5896 5896 5897 5897 5898
5885 5885 5884 5884 5884 5883 5882 5881 5882 5882 5882 5882 5881 5881 5882 5882 5882 5882 5883 5883 5884 5884 5885 5886 5887 5888 5888 5889 5890 5891 5891 5892 5892 5893 5894 5894 5895 5896 5896 5896 5897 5898 5899
5887 5886 5885 5885 5885 5884 5883 5883 5883 5883 5883 5883 5883 5883 5883 5883 5883 5884 5884 5884 5885 5885 5886 5886 5887 5888 5889 5890 5891 5891 5892 5892 5893 5894 5894 5895 5896 5896 5897 5898 5898 5899 5900
5888 5887 5887 5886 5886 5885 5885 5884 5884 5884 5884 5884 5884 5884 5884 5884 5885 5885 5885 5885 5886 5886 5887 5887 5888 5889 5890 5890 5891 5892 5892 5893 5893 5894 5895 5895 5896 5897 5898 5898 5899 5899 5900
5889 5888 5888 5887 5887 5886 5886 5885 5885 5885 5885 5885 5885 5885 5885 5885 5886 5886 5886 5886 5887 5887 5887 5888 5889 5889 5890 5891 5891 5892 5892 5893 5894 5894 5895 5896 5896 5897 5898 5898 5899 5900 5901
5890 5889 5889 5888 5887 5887 5887 5886 5886 5886 5886 5886 5886 5886 5886 5886 5887 5887 5887 5888 5888 5888 5889 5889 5890 5890 5891 5892 5892 5892 5893 5893 5894 5895 5896 5896 5897 5898 5898 5899 5900 5901 5901
5891 5890 5890 5889 5888 5888 5887 5887 5887 5887 5887 5887 5887 5887 5887 5887 5888 5888 5888 5889 5889 5889 5890 5890 5890 5891 5892 5892 5892 5893 5894 5894 5895 5895 5896 5897 5897 5898 5899 5899 5900 5901 5901
5892 5891 5890 5890 5889 5889 5888 5888 5888 5888 5888 5888 5888 5888 5889 5889 5889 5889 5889 5890 5890 5890 5891 5891 5891 5892 5892 5893 5893 5894 5894 5895 5895 5896 5896 5897 5898 5898 5899 5900 5900 5901 5901
5893 5892 5891 5890 5890 5889 5889 5889 5889 5889 5889 5889 5889 5889 5890 5890 5890 5890 5890 5890 5891 5891 5891 5892 5892 5893 5893 5893 5894 5895 5895 5895 5896 5896 5897 5898 5898 5899 5899 5900 5900 5901 5902
5895 5894 5892 5891 5891 5890 5890 5890 5890 5890 5890 5890 5890 5890 5890 5890 5891 5891 5891 5891 5892 5892 5892 5893 5893 5893 5894 5894 5895 5895 5895 5896 5896 5897 5897 5898 5899 5899 5899 5900 5900 5901 5901
5896 5895 5894 5893 5892 5891 5891 5891 5890 5890 5891 5891 5891 5891 5890 5891 5891 5891 5892 5892 5892 5893 5893 5893 5894 5894 5895 5895 5895 5895 5896 5896 5896 5897 5897 5898 5899 5899 5899 5900 5900 5900 5900
5897 5896 5895 5894 5893 5892 5892 5891 5891 5891 5891 5891 5891 5891 5891 5891 5891 5891 5892 5892 5893 5893 5893 5894 5894 5895 5895 5895 5896 5896 5896 5896 5897 5897 5897 5898 5898 5899 5899 5899 5899 5899 5899
5899 5897 5896 5895 5894 5893 5892 5892 5892 5891 5891 5891 5891 5891 5891 5891 5891 5891 5892 5892 5893 5893 5893 5894 5894 5895 5895 5895 5896 5896 5896 5896 5896 5896 5897 5897 5897 5898 5898 5898 5898 5898 5898
5900 5899 5897 5896 5895 5894 5893 5893 5892 5892 5892 5892 5891 5891 5891 5892 5891 5891 5892 5892 5892 5893 5893 5893 5894 5894 5894 5895 5895 5895 5895 5895 5895 5895 5896 5896 5896 5896 5896 5896 5896 5896 5896
5902 5900 5899 5898 5896 5895 5894 5893 5893 5892 5892 5892 5892 5891 5891 5891 5891 5891 5891 5891 5892 5892 5892 5893 5893 5893 5893 5894 5894 5894 5894 5894 5894 5894 5894 5894 5894 5895 5895 5895 5895 5895 5894
5904 5902 5900 5899 5898 5896 5895 5894 5893 5893 5892 5892 5891 5891 5891 5891 5890 5890 5891 5891 5891 5891 5891 5891 5892 5892 5892 5892 5892 5893 5893 5893 5892 5892 5892 5893 5893 5893 5893 5893 5892 5892 5892
5906 5904 5902 5900 5899 5897 5896 5895 5894 5893 5892 5891 5891 5891 5891 5890 5889 5889 5889 5889 5889 5889 5890 5890 5890 5890 5890 5890 5891 5891 5891 5891 5890 5890 5890 5890 5890 5890 5890 5890 5890 5890 5889
5907 5905 5903 5901 5899 5898 5896 5895 5894 5893 5892 5891 5890 5890 5889 5889 5888 5888 5888 5888 5888 5888 5888 5888 5888 5888 5888 5888 5888 5888 5888 5888 5887 5887 5887 5887 5887 5887 5887 5887 5886 5886 5885
5908 5906 5904 5902 5900 5898 5897 5895 5894 5893 5892 5891 5890 5889 5889 5888 5887 5887 5887 5887 5886 5886 5886 5886 5886 5886 5885 5885 5885 5885 5885 5884 5884 5884 5884 5884 5884 5884 5883 5883 5883 5882 5881
5909 5907 5904 5902 5900 5899 5897 5896 5894 5893 5891 5890 5889 5888 5887 5887 5886 5885 5885 5885 5884 5884 5884 5884 5884 5883 5883 5882 5882 5882 5881 5881 5881 5881 5880 5880 5880 5879 5879 5879 5878 5877 5877
5910 5908 5905 5903 5901 5899 5897 5896 5894 5892 5891 5889 5888 5886 5885 5885 5884 5884 5883 5883 5882 5882 5881 5881 5881 5880 5879 5879 5878 5878 5878 5877 5877 5876 5876 5875 5875 5875 5874 5874 5873 5872 5872